Location: Prairie View Elementary School
(39.8322°N, 99.5698°W)
Time: 06:16:19
(UTC+00:00)

Exosat Rocket - Pass Details

Date: 08 December 2019
Orbit: 760 x 2515 km, 72.3° (Epoch: 21 January)

Event Time Altitude Azimuth Distance (km) Brightness Sun altitude
Rises 00:37:30 0° 213° (SSW) 3,672 7.8 -15.7°
Reaches altitude 10° 00:40:18 10° 219° (SW) 2,562 7.0 -16.2°
Maximum altitude 00:45:42 50° 294° (WNW) 995 4.4 -17.2°
Drops below altitude 10° 00:50:32 10° 11° (N) 2,300 5.7 -18.1°
Enters shadow 00:51:11 - 13° (NNE) 2,554 5.9 -18.2°
